This demonstration page uses our WeatherBlox Daily Observations layout. Learn more.

38.88101, -77.10428

Hourly Observations for May 31, 2020

Temp ( °F °C ) Dew Point ( °F °C ) Humidity (%) Winds ( mph kmh ) Pressure ( in mb ) Visibility ( mi km ) Precip ( " mm )
12:52 am 00:52 Mostly Cloudy 71 21.7 51 10.6 49 49 NNW 14 22 30.02 1017 10 16.0934 0 0
1:52 am 01:52 Mostly Cloudy 69 20.6 49 9.4 49 49 N 18 30 30.03 1017 10 16.0934 0 0
2:52 am 02:52 Partly Cloudy 66 18.9 44 6.7 45 45 NNW 18 30 30.04 1017 10 16.0934 0 0
3:52 am 03:52 Partly Cloudy 64 17.8 42 5.6 45 45 N 10 17 30.05 1018 10 16.0934 0 0
4:52 am 04:52 Mostly Clear 63 17.2 39 3.9 41 41 NNW 12 19 30.07 1018 10 16.0934 0 0
5:52 am 05:52 Mostly Sunny 61 16.1 40 4.4 46 46 NNW 13 20 30.09 1019 10 16.0934 0 0
6:52 am 06:52 Mostly Sunny 62 16.7 42 5.6 48 48 N 10 17 30.12 1020 10 16.0934 0 0
7:52 am 07:52 Mostly Sunny 64 17.8 42 5.6 45 45 N 14 22 30.15 1021 10 16.0934 0 0
8:52 am 08:52 Sunny 66 18.9 43 6.1 43 43 N 12 19 30.16 1021 10 16.0934 0 0
9:52 am 09:52 Sunny 67 19.4 42 5.6 41 41 N 13 20 30.16 1022 10 16.0934 0 0
10:52 am 10:52 Mostly Sunny 69 20.6 43 6.1 39 39 NNW 14 22 30.16 1021 10 16.0934 0 0
11:52 am 11:52 Mostly Sunny 71 21.7 44 6.7 38 38 NW 10 17 30.15 1021 10 16.0934 0 0
12:52 pm 12:52 Partly Cloudy 74 23.3 46 7.8 37 37 NNW 12 19 30.14 1021 10 16.0934 0 0
1:52 pm 13:52 Partly Cloudy 73 22.8 44 6.7 35 35 WNW 10 17 30.12 1020 10 16.0934 0 0
2:52 pm 14:52 Partly Cloudy 73 22.8 43 6.1 34 34 NW 13 20 30.12 1020 10 16.0934 0 0
3:52 pm 15:52 Mostly Cloudy 75 23.9 45 7.2 34 34 N 14 22 30.11 1020 10 16.0934 0 0
4:52 pm 16:52 Partly Cloudy 75 23.9 44 6.7 33 33 NNW 12 19 30.09 1019 10 16.0934 0 0
5:52 pm 17:52 Partly Cloudy 75 23.9 42 5.6 31 31 NW 14 22 30.08 1019 10 16.0934 0 0
6:52 pm 18:52 Partly Cloudy 73 22.8 40 4.4 30 30 NNW 15 24 30.09 1019 10 16.0934 0 0
7:52 pm 19:52 Mostly Sunny 71 21.7 38 3.3 30 30 NNW 15 24 30.11 1020 10 16.0934 0 0
8:52 pm 20:52 Mostly Clear 69 20.6 37 2.8 31 31 NNW 10 17 30.12 1020 10 16.0934 0 0
9:52 pm 21:52 Mostly Clear 66 18.9 39 3.9 37 37 N 12 19 30.16 1021 10 16.0934 0 0
10:52 pm 22:52 Clear 65 18.3 39 3.9 39 39 NNW 12 19 30.17 1022 10 16.0934 0 0
11:52 pm 23:52 Mostly Clear 64 17.8 37 2.8 37 37 NW 13 20 30.19 1022 10 16.0934 0 0

Powered by AerisWeather